period_start,C,m1,H,J0,J1,J2,J3,J4,J5,JA,JB,JC,JD,JJ,JK,JN,#
2015-09-11 00:05:01,0.00,2.65,0.00,23.36,28.12,30.72,14.43,47.13,1011.98,2033.99,2475.00,2554.03,2760.01,599.80,592.40,54.61,0000 0000 0000 0000 000000
2015-09-11 00:10:02,-0.00,2.65,0.00,23.38,28.12,30.73,14.40,46.94,1011.80,2033.99,2475.00,2554.01,2760.02,600.02,592.40,54.66,0000 0000 0000 0000 000000
2015-09-11 00:15:03,0.00,2.66,0.00,23.31,28.12,30.73,14.47,46.99,1011.75,2033.99,2475.00,2554.01,2760.00,600.29,592.78,54.71,0000 0000 0000 0000 000000
2015-09-11 00:20:05,0.00,2.66,0.00,23.36,28.12,30.73,14.47,47.11,1011.74,2033.99,2474.97,2554.00,2760.00,600.19,592.64,54.76,0000 0000 0000 0000 000000
2015-09-11 00:25:06,0.00,2.66,0.00,23.29,28.12,30.71,14.40,47.04,1011.74,2033.99,2474.98,2554.00,2760.00,599.92,592.43,54.81,0000 0000 0000 0000 000000
2015-09-11 00:30:08,0.00,2.66,0.00,23.33,28.12,30.76,14.38,46.96,1011.73,2033.99,2474.95,2554.00,2760.00,599.88,592.34,54.86,0000 0000 0000 0000 000000
2015-09-11 00:35:09,0.00,2.66,0.00,23.26,28.12,30.73,14.46,47.13,1011.73,2033.98,2474.95,2554.00,2760.00,599.98,592.74,54.91,0000 0000 0000 0000 000000
2015-09-11 00:40:10,0.00,2.66,0.00,23.35,28.12,30.74,14.38,47.05,1011.73,2033.99,2474.96,2554.00,2760.00,599.80,592.30,54.96,0000 0000 0000 0000 000000
2015-09-11 00:45:12,0.00,2.66,0.00,23.31,28.12,30.73,14.47,47.06,1011.72,2033.99,2474.95,2553.99,2760.00,600.15,592.83,55.01,0000 0000 0000 0000 000000
2015-09-11 00:50:13,-0.00,2.66,0.00,23.34,28.12,30.73,14.42,47.01,1011.53,2033.99,2474.89,2553.99,2759.99,600.19,592.46,55.06,0000 0000 0000 0000 000000
2015-09-11 00:55:15,-0.00,2.66,0.00,23.37,28.12,30.74,14.50,47.16,1011.28,2033.99,2474.85,2553.99,2759.98,599.84,591.97,55.11,0000 0000 0000 0000 000000
2015-09-11 01:00:16,0.01,2.66,0.00,23.34,28.12,30.72,14.42,47.14,1011.26,2033.98,2474.52,2553.98,2759.97,599.85,592.18,55.16,0000 0000 0000 0000 000000
2015-09-11 01:05:17,0.01,2.66,0.00,23.36,28.12,30.73,14.49,47.27,1011.27,2033.99,2474.17,2553.97,2759.93,600.03,592.19,55.21,0000 0000 0000 0000 000000
2015-09-11 01:10:18,0.00,2.66,0.00,23.37,28.12,30.73,14.37,47.02,1011.26,2033.99,2474.06,2553.98,2759.89,599.78,591.81,55.26,0000 0000 0000 0000 000000
2015-09-11 01:15:20,0.00,2.66,0.00,23.40,28.12,30.72,14.50,47.08,1011.25,2033.98,2474.08,2553.97,2759.85,600.01,592.09,55.32,0000 0000 0000 0000 000000
2015-09-11 01:20:21,0.00,2.66,0.00,23.42,28.12,30.73,14.40,47.20,1011.25,2033.99,2474.06,2553.96,2759.87,600.00,592.03,55.37,0000 0000 0000 0000 000000
2015-09-11 01:25:22,0.00,2.66,0.00,23.37,28.12,30.74,14.37,47.13,1011.25,2033.99,2474.03,2553.97,2759.85,599.99,592.04,55.42,0000 0000 0000 0000 000000
2015-09-11 01:30:23,0.00,2.66,0.00,23.31,28.12,30.73,14.41,47.20,1011.23,2033.98,2474.03,2553.94,2759.68,600.03,592.29,55.47,0000 0000 0000 0000 000000
2015-09-11 01:35:25,0.00,2.66,0.00,23.34,28.12,30.73,14.47,47.02,1011.02,2033.98,2474.02,2553.95,2759.67,600.04,592.13,55.52,0000 0000 0000 0000 000000
2015-09-11 01:40:26,-0.00,2.66,0.00,23.36,28.12,30.73,14.44,47.27,1010.80,2033.98,2474.02,2553.94,2759.71,600.27,592.29,55.57,0000 0000 0000 0000 000000
2015-09-11 01:45:27,-0.00,2.66,0.00,23.36,28.12,30.74,14.34,46.97,1010.80,2033.99,2474.01,2553.94,2759.57,599.72,591.66,55.62,0000 0000 0000 0000 000000
2015-09-11 01:50:29,0.01,2.66,0.00,23.33,28.12,30.72,14.44,46.97,1010.77,2033.98,2474.00,2553.87,2759.37,600.11,592.10,55.67,0000 0000 0000 0000 000000
2015-09-11 01:55:30,-0.00,2.66,0.00,23.38,28.12,30.74,14.45,47.16,1010.76,2033.99,2474.01,2553.88,2759.49,600.22,592.10,55.72,0000 0000 0000 0000 000000
2015-09-11 02:00:32,-0.00,2.66,0.00,23.32,28.12,30.74,14.49,47.29,1010.76,2033.99,2474.02,2553.91,2759.65,599.95,591.91,55.77,0000 0000 0000 0000 000000
2015-09-11 02:05:33,0.00,2.66,0.00,23.39,28.12,30.74,14.47,47.11,1010.76,2033.99,2474.01,2553.91,2759.58,600.20,592.13,55.82,0000 0000 0000 0000 000000
2015-09-11 02:10:34,0.01,2.66,0.00,23.36,28.12,30.74,14.42,47.08,1010.76,2033.98,2474.00,2553.75,2759.28,600.07,591.74,55.87,0000 0000 0000 0000 000000
2015-09-11 02:15:36,0.02,2.66,0.00,23.42,28.12,30.73,14.41,47.12,1010.76,2033.98,2474.00,2553.27,2759.07,599.97,591.73,55.92,0000 0000 0000 0000 000000
2015-09-11 02:20:37,0.01,2.66,0.00,23.35,28.12,30.76,14.37,46.93,1010.71,2033.98,2473.99,2553.22,2759.03,599.79,591.70,55.97,0000 0000 0000 0000 000000
2015-09-11 02:25:39,0.00,2.66,0.00,23.30,28.12,30.73,14.38,47.18,1010.48,2033.98,2473.98,2553.09,2759.02,600.14,592.09,56.02,0000 0000 0000 0000 000000
2015-09-11 02:30:40,-0.00,2.66,0.00,23.37,28.12,30.72,14.38,47.09,1010.36,2033.99,2473.99,2553.17,2759.02,599.67,591.33,56.07,0000 0000 0000 0000 000000
2015-09-11 02:35:42,0.00,2.66,0.00,23.38,28.12,30.72,14.40,47.04,1010.30,2033.99,2473.96,2553.08,2759.00,600.11,591.69,56.12,0000 0000 0000 0000 000000
2015-09-11 02:40:42,0.02,2.66,0.00,23.38,28.12,30.75,14.37,46.99,1010.27,2033.98,2473.33,2553.00,2758.99,599.57,591.15,56.17,0000 0000 0000 0000 000000
2015-09-11 02:45:44,0.00,2.66,0.00,23.33,28.12,30.74,14.35,47.04,1010.27,2033.99,2473.12,2553.00,2758.99,599.99,591.63,56.23,0000 0000 0000 0000 000000
2015-09-11 02:50:45,0.00,2.66,0.00,23.41,28.12,30.73,14.32,46.96,1010.27,2033.99,2473.03,2553.00,2758.98,599.99,591.45,56.28,0000 0000 0000 0000 000000
2015-09-11 02:55:47,0.00,2.66,0.00,23.32,28.12,30.74,14.34,46.91,1010.27,2033.99,2473.05,2553.00,2758.99,599.49,591.16,56.33,0000 0000 0000 0000 000000
2015-09-11 03:00:48,0.00,2.66,0.00,23.40,28.12,30.74,14.40,46.95,1010.27,2033.98,2473.02,2552.99,2758.94,600.69,592.11,56.38,0000 0000 0000 0000 000000
2015-09-11 03:05:50,0.00,2.66,0.00,23.37,28.12,30.75,14.37,46.96,1010.26,2033.97,2473.01,2552.99,2758.85,599.79,591.37,56.43,0000 0000 0000 0000 000000
2015-09-11 03:10:51,0.00,2.66,0.00,23.36,28.12,30.73,14.43,46.97,1010.15,2033.98,2473.00,2552.98,2758.58,600.12,591.67,56.48,0000 0000 0000 0000 000000
2015-09-11 03:15:52,0.00,2.66,0.00,23.40,28.12,30.73,14.34,46.95,1009.90,2033.97,2473.00,2552.97,2758.46,599.77,590.98,56.53,0000 0000 0000 0000 000000
2015-09-11 03:20:53,0.00,2.66,0.00,23.33,28.13,30.75,14.43,46.86,1009.91,2033.97,2473.00,2552.97,2758.40,600.00,591.40,56.58,0000 0000 0000 0000 000000
2015-09-11 03:25:54,-0.00,2.66,0.00,23.43,28.14,30.74,14.38,46.84,1009.80,2033.96,2473.00,2552.95,2758.23,600.15,591.34,56.63,0000 0000 0000 0000 000000
2015-09-11 03:30:56,0.00,2.66,0.00,23.40,28.15,30.75,14.33,46.90,1009.78,2033.96,2473.00,2552.94,2758.10,599.70,590.92,56.68,0000 0000 0000 0000 000000
2015-09-11 03:35:57,-0.00,2.66,0.00,23.45,28.15,30.76,14.27,46.83,1009.70,2033.94,2473.00,2552.95,2758.06,599.77,590.81,56.73,0000 0000 0000 0000 000000
2015-09-11 03:40:58,0.00,2.66,0.00,23.45,28.15,30.76,14.35,46.81,1009.54,2033.90,2473.00,2552.82,2758.04,600.32,591.26,56.78,0000 0000 0000 0000 000000
2015-09-11 03:45:59,0.01,2.66,0.00,23.50,28.15,30.75,14.42,46.99,1009.34,2033.87,2473.00,2552.54,2758.00,599.86,590.63,56.83,0000 0000 0000 0000 000000
2015-09-11 03:51:01,0.00,2.66,0.00,23.44,28.15,30.74,14.44,47.12,1009.32,2033.86,2472.99,2552.44,2758.00,599.99,590.98,56.88,0000 0000 0000 0000 000000
2015-09-11 03:56:02,0.00,2.66,0.00,23.49,28.15,30.74,14.40,46.82,1009.30,2033.78,2472.98,2552.24,2758.00,600.10,590.88,56.93,0000 0000 0000 0000 000000
2015-09-11 04:01:03,0.01,2.66,0.00,23.50,28.15,30.75,14.45,46.92,1009.29,2033.80,2472.97,2552.11,2758.00,600.24,591.05,56.98,0000 0000 0000 0000 000000
2015-09-11 04:06:05,-0.01,2.66,0.00,23.42,28.17,30.76,14.36,46.79,1009.29,2033.69,2472.98,2552.08,2758.00,599.48,590.38,57.03,0000 0000 0000 0000 000000
2015-09-11 04:11:06,-0.01,2.66,0.00,23.47,28.17,30.77,14.45,46.92,1009.23,2033.60,2472.95,2552.03,2758.00,600.63,591.46,57.08,0000 0000 0000 0000 000000
2015-09-11 04:16:08,0.01,2.66,0.00,23.44,28.17,30.77,14.40,46.81,1009.01,2033.62,2472.95,2552.03,2758.00,600.27,590.99,57.13,0000 0000 0000 0000 000000
2015-09-11 04:21:09,-0.03,2.66,0.00,23.51,28.17,30.77,14.35,46.77,1008.84,2033.37,2472.94,2552.01,2757.98,599.82,590.29,57.18,0000 0000 0000 0000 000000
2015-09-11 04:26:10,0.02,2.66,0.00,23.50,28.17,30.78,14.41,47.07,1008.82,2033.40,2472.82,2552.01,2757.98,599.79,590.35,57.24,0000 0000 0000 0000 000000
2015-09-11 04:31:12,-0.01,2.66,0.00,23.51,28.17,30.78,14.39,46.95,1008.81,2033.35,2472.71,2552.00,2757.98,600.28,590.57,57.29,0000 0000 0000 0000 000000
2015-09-11 04:36:13,0.01,2.66,0.00,23.54,28.17,30.80,14.46,47.00,1008.80,2033.28,2472.55,2552.00,2757.96,599.82,590.32,57.34,0000 0000 0000 0000 000000
2015-09-11 04:41:14,-0.01,2.66,0.00,23.43,28.17,30.79,14.37,47.00,1008.80,2033.13,2472.23,2552.00,2757.87,600.16,590.75,57.39,0000 0000 0000 0000 000000
2015-09-11 04:46:15,0.01,2.66,0.00,23.49,28.17,30.77,14.47,46.94,1008.80,2033.21,2472.04,2552.00,2757.79,600.40,591.02,57.44,0000 0000 0000 0000 000000
2015-09-11 04:51:17,-0.01,2.66,0.00,23.47,28.17,30.80,14.44,47.05,1008.65,2033.10,2472.03,2552.00,2757.49,600.41,590.79,57.49,0000 0000 0000 0000 000000
2015-09-11 04:56:18,0.01,2.66,0.00,23.51,28.18,30.78,14.36,46.94,1008.44,2033.06,2472.00,2551.99,2757.12,600.11,590.23,57.54,0000 0000 0000 0000 000000
2015-09-11 05:01:19,0.00,2.66,0.00,23.50,28.19,30.79,14.37,46.91,1008.36,2033.07,2472.00,2551.99,2757.03,599.96,590.20,57.59,0000 0000 0000 0000 000000
2015-09-11 05:06:20,0.00,2.66,0.00,23.54,28.20,30.78,14.44,46.96,1008.34,2033.07,2472.00,2551.98,2757.03,600.22,590.21,57.64,0000 0000 0000 0000 000000
2015-09-11 05:11:21,0.01,2.66,0.00,23.49,28.20,30.81,14.39,46.92,1008.32,2033.06,2471.97,2551.92,2757.01,600.19,590.41,57.69,0000 0000 0000 0000 000000
2015-09-11 05:16:22,-0.00,2.66,0.00,23.55,28.20,30.80,14.37,46.88,1008.31,2033.06,2471.97,2551.92,2757.00,599.70,589.65,57.74,0000 0000 0000 0000 000000
2015-09-11 05:21:23,0.01,2.66,0.00,23.55,28.20,30.81,14.39,46.98,1008.04,2033.09,2471.96,2551.94,2757.01,600.06,590.02,57.79,0000 0000 0000 0000 000000
2015-09-11 05:26:25,0.01,2.66,0.00,23.59,28.20,30.81,14.38,46.88,1007.85,2033.05,2471.88,2551.73,2757.00,600.25,589.97,57.84,0000 0000 0000 0000 000000
2015-09-11 05:31:26,0.02,2.66,0.00,23.58,28.21,30.82,14.32,47.07,1007.84,2033.07,2471.62,2551.53,2757.00,599.64,589.37,57.89,0000 0000 0000 0000 000000
2015-09-11 05:36:28,0.01,2.66,0.00,23.60,28.22,30.83,14.38,47.20,1007.83,2033.07,2471.26,2551.40,2756.99,600.14,589.81,57.94,0000 0000 0000 0000 000000
2015-09-11 05:41:29,0.01,2.66,0.00,23.62,28.22,30.84,14.27,46.99,1007.83,2033.08,2471.21,2551.26,2756.99,599.70,589.24,57.99,0000 0000 0000 0000 000000
2015-09-11 05:46:31,0.00,2.66,0.00,23.65,28.22,30.84,14.35,47.08,1007.83,2033.07,2471.05,2551.09,2756.99,600.12,589.61,58.04,0000 0000 0000 0000 000000
2015-09-11 05:51:32,0.00,2.66,0.00,23.62,28.22,30.83,14.34,47.05,1007.83,2033.07,2471.03,2551.06,2756.97,600.17,589.77,58.09,0000 0000 0000 0000 000000
2015-09-11 05:56:33,0.00,2.66,0.00,23.63,28.22,30.83,14.37,47.08,1007.83,2033.06,2471.01,2551.03,2756.96,599.77,589.59,58.14,0000 0000 0000 0000 000000
2015-09-11 06:01:35,0.00,2.66,0.00,23.63,28.23,30.83,14.36,47.03,1007.69,2033.04,2471.00,2551.01,2756.83,599.86,589.40,58.20,0000 0000 0000 0000 000000
2015-09-11 06:06:36,0.00,2.66,0.00,23.65,28.24,30.83,14.32,46.87,1007.59,2033.02,2471.00,2551.00,2756.49,599.73,589.16,58.25,0000 0000 0000 0000 000000
2015-09-11 06:11:38,-0.00,2.66,0.00,23.61,28.25,30.82,14.39,47.01,1007.39,2033.03,2470.99,2551.00,2756.38,599.89,589.31,58.30,0000 0000 0000 0000 000000
2015-09-11 06:16:39,0.00,2.66,0.00,23.65,28.25,30.84,14.27,46.92,1007.36,2033.03,2470.99,2551.00,2756.31,599.68,588.97,58.35,0000 0000 0000 0000 000000
2015-09-11 06:21:40,0.00,2.66,0.00,23.61,28.25,30.84,14.31,47.04,1007.34,2033.04,2470.96,2551.00,2756.09,599.97,589.37,58.40,0000 0000 0000 0000 000000
2015-09-11 06:26:41,-0.00,2.66,0.00,23.64,28.25,30.85,14.31,46.84,1007.34,2033.01,2470.87,2550.99,2756.03,599.73,588.99,58.45,0000 0000 0000 0000 000000
2015-09-11 06:31:43,0.00,2.67,0.00,23.65,28.25,30.87,14.35,47.01,1007.34,2033.01,2470.65,2550.97,2756.02,600.02,589.40,58.50,0000 0000 0000 0000 000000
2015-09-11 06:36:44,0.01,2.67,0.00,23.64,28.25,30.85,14.35,47.03,1007.34,2033.03,2470.30,2550.98,2756.01,599.60,588.88,58.55,0000 0000 0000 0000 000000
2015-09-11 06:41:45,0.01,2.67,0.00,23.64,28.25,30.84,14.36,47.03,1007.34,2033.03,2470.06,2550.94,2756.00,599.93,589.18,58.60,0000 0000 0000 0000 000000
2015-09-11 06:46:47,0.02,2.67,0.00,23.56,28.26,30.84,14.38,47.06,1007.30,2033.01,2470.00,2550.45,2756.00,599.66,589.18,58.65,0000 0000 0000 0000 000000
2015-09-11 06:51:48,0.00,2.67,0.00,23.62,28.26,30.85,14.42,46.99,1007.29,2033.00,2470.00,2550.05,2755.96,600.36,589.65,58.70,0000 0000 0000 0000 000000
2015-09-11 06:56:49,0.00,2.67,0.00,23.63,28.27,30.88,14.31,47.03,1007.30,2033.01,2470.00,2550.05,2755.94,600.06,589.39,58.75,0000 0000 0000 0000 000000
2015-09-11 07:01:51,-0.00,2.67,0.00,23.65,28.27,30.86,14.34,47.06,1007.13,2033.02,2469.98,2550.01,2755.84,600.24,589.45,58.80,0000 0000 0000 0000 000000
2015-09-11 07:06:52,0.00,2.67,0.00,23.66,28.27,30.87,14.34,46.97,1006.98,2033.01,2469.86,2550.00,2755.68,600.29,589.38,58.85,0000 0000 0000 0000 000000
2015-09-11 07:11:54,0.02,2.67,0.00,23.65,28.27,30.85,14.38,46.92,1006.89,2033.01,2469.24,2550.00,2755.15,600.04,589.04,58.90,0000 0000 0000 0000 000000
2015-09-11 07:16:55,0.00,2.67,0.00,23.69,28.27,30.89,14.30,47.06,1006.87,2033.01,2469.04,2550.00,2755.03,599.70,588.66,58.95,0000 0000 0000 0000 000000
2015-09-11 07:21:56,0.00,2.67,0.00,23.65,28.27,30.89,14.37,47.05,1006.85,2033.00,2469.00,2549.99,2755.01,600.29,589.34,59.00,0000 0000 0000 0000 000000
2015-09-11 07:26:57,-0.00,2.67,0.00,23.64,28.27,30.89,14.36,46.92,1006.84,2033.02,2469.00,2549.97,2755.00,599.61,588.68,59.05,0000 0000 0000 0000 000000
2015-09-11 07:31:58,0.00,2.67,0.00,23.67,28.27,30.90,14.34,46.91,1006.70,2033.00,2468.98,2549.81,2754.99,599.57,588.65,59.10,0000 0000 0000 0000 000000
2015-09-11 07:37:00,0.02,2.67,0.00,23.70,28.27,30.90,14.38,47.01,1006.40,2033.02,2468.85,2549.48,2754.97,600.21,588.90,59.16,0000 0000 0000 0000 000000
2015-09-11 07:42:01,0.03,2.67,0.00,23.72,28.28,30.91,14.34,47.03,1006.38,2033.01,2468.31,2549.12,2754.71,599.92,588.44,59.21,0000 0000 0000 0000 000000
2015-09-11 07:47:02,0.01,2.67,0.00,23.75,28.29,30.92,14.37,47.08,1006.37,2033.01,2468.05,2549.02,2754.34,600.18,588.74,59.26,0000 0000 0000 0000 000000
2015-09-11 07:52:03,0.00,2.67,0.00,23.72,28.29,30.93,14.33,46.98,1006.36,2033.00,2468.00,2549.00,2754.04,599.74,588.20,59.31,0000 0000 0000 0000 000000
2015-09-11 07:57:04,-0.00,2.67,0.00,23.71,28.30,30.91,14.38,46.97,1006.36,2033.01,2467.99,2549.00,2754.00,600.28,588.77,59.36,0000 0000 0000 0000 000000
2015-09-11 08:02:06,0.00,2.67,0.00,23.74,28.30,30.90,14.34,46.99,1006.36,2033.00,2467.88,2548.98,2754.00,600.18,588.76,59.41,0000 0000 0000 0000 000000
2015-09-11 08:07:07,0.02,2.67,0.00,23.68,28.30,30.89,14.32,46.91,1006.36,2033.00,2467.28,2548.85,2753.88,600.27,589.10,59.46,0000 0000 0000 0000 000000
2015-09-11 08:12:08,0.04,2.68,0.00,23.67,28.30,30.87,14.32,46.90,1006.27,2033.00,2467.02,2548.29,2753.25,599.82,588.50,59.51,0000 0000 0000 0000 000000
2015-09-11 08:17:10,0.00,2.68,0.00,23.71,28.30,30.88,14.28,46.86,1006.05,2033.00,2467.00,2548.06,2753.04,599.81,588.25,59.56,0000 0000 0000 0000 000000
2015-09-11 08:22:11,0.00,2.68,0.00,23.74,28.30,30.90,14.33,46.83,1005.93,2033.00,2466.94,2548.01,2753.00,599.68,588.05,59.61,0000 0000 0000 0000 000000
2015-09-11 08:27:12,0.00,2.68,0.00,23.75,28.30,30.92,14.32,46.89,1005.89,2033.00,2466.71,2548.00,2753.00,599.90,588.24,59.66,0000 0000 0000 0000 000000
2015-09-11 08:32:14,0.01,2.68,0.00,23.75,28.31,30.94,14.35,46.92,1005.90,2033.00,2466.16,2548.00,2752.98,600.14,588.42,59.71,0000 0000 0000 0000 000000
2015-09-11 08:37:15,0.00,2.68,0.00,23.75,28.32,30.96,14.44,46.92,1005.88,2033.00,2466.03,2547.99,2752.86,600.35,588.61,59.76,0000 0000 0000 0000 000000
2015-09-11 08:42:17,0.01,2.68,0.00,23.72,28.32,30.93,14.26,46.88,1005.88,2033.00,2466.00,2547.91,2752.29,599.81,588.19,59.81,0000 0000 0000 0000 000000
2015-09-11 08:47:18,0.00,2.68,0.00,23.72,28.32,30.95,14.31,47.00,1005.88,2033.00,2465.99,2547.72,2752.04,599.67,588.18,59.86,0000 0000 0000 0000 000000
2015-09-11 08:52:20,0.02,2.68,0.00,23.75,28.32,30.95,14.30,47.00,1005.88,2033.00,2465.91,2547.23,2752.01,600.25,588.50,59.91,0000 0000 0000 0000 000000
2015-09-11 08:57:21,0.01,2.68,0.00,23.77,28.32,30.94,14.35,46.91,1005.88,2033.00,2465.48,2547.03,2752.00,600.56,588.71,59.96,0000 0000 0000 0000 000000
2015-09-11 09:02:22,0.01,0.36,0.00,23.77,28.33,31.02,12.48,42.98,1005.88,2034.73,3323.08,3158.26,3444.84,529.86,519.44,0.00,0000 0000 0000 0000 000000
2015-09-11 09:07:23,0.02,0.00,0.00,23.78,28.33,31.01,14.38,49.22,1005.87,2035.00,3451.38,3251.06,3550.46,600.25,588.41,0.05,0000 0000 0000 0000 000000
2015-09-11 09:12:24,0.01,0.00,0.00,23.79,28.33,31.00,14.31,49.17,1005.87,2035.00,3450.38,3250.97,3549.73,599.64,587.96,0.10,0000 0000 0000 0000 000000
2015-09-11 09:17:26,0.02,0.00,0.00,23.77,28.33,31.00,14.38,49.25,1005.87,2035.00,3449.94,3250.56,3549.03,599.94,588.14,0.15,0000 0000 0000 0000 000000
2015-09-11 09:22:27,0.02,0.00,0.00,23.78,28.33,31.03,14.41,49.34,1005.87,2035.00,3449.28,3250.15,3548.76,600.44,588.50,0.20,0000 0000 0000 0000 000000
2015-09-11 09:27:29,0.01,0.00,0.00,23.79,28.33,31.04,14.44,49.29,1005.86,2035.00,3449.00,3250.01,3548.07,600.33,588.36,0.25,0000 0000 0000 0000 000000
2015-09-11 09:32:30,0.00,0.00,0.00,23.77,28.34,31.03,14.36,49.23,1005.72,2035.00,3448.86,3250.00,3547.99,599.80,587.94,0.30,0000 0000 0000 0000 000000
2015-09-11 09:37:32,0.02,0.00,0.00,23.78,28.34,31.04,14.38,49.29,1005.44,2035.00,3448.12,3249.98,3547.51,600.33,588.25,0.35,0000 0000 0000 0000 000000
2015-09-11 09:42:33,0.01,0.00,0.00,23.77,28.34,31.04,14.35,49.23,1005.39,2035.00,3447.97,3249.60,3547.03,599.68,587.71,0.40,0000 0000 0000 0000 000000
2015-09-11 09:47:34,0.02,0.00,0.00,23.74,28.34,31.02,14.44,49.35,1005.40,2035.00,3447.57,3249.15,3546.98,600.36,588.31,0.45,0000 0000 0000 0000 000000
2015-09-11 09:52:35,0.00,0.01,0.00,23.75,28.34,31.00,14.42,49.42,1005.45,2035.00,3447.04,3249.05,3546.74,600.15,588.06,0.51,0000 0000 0000 0000 000000
2015-09-11 09:57:37,0.01,0.01,0.00,23.75,28.34,31.02,14.32,49.38,1005.41,2035.00,3446.99,3249.01,3546.17,600.27,588.19,0.56,0000 0000 0000 0000 000000
2015-09-11 10:02:38,0.00,0.01,0.00,23.77,28.34,31.06,14.31,49.20,1005.41,2035.00,3446.97,3249.00,3546.00,599.76,587.60,0.61,0000 0000 0000 0000 000000
2015-09-11 10:07:40,0.01,0.01,0.00,23.76,28.34,31.09,14.23,49.20,1005.40,2035.00,3446.70,3249.00,3546.00,599.43,587.45,0.66,0000 0000 0000 0000 000000
2015-09-11 10:12:41,0.00,0.01,0.00,23.75,28.34,31.07,14.41,49.25,1005.41,2035.00,3446.14,3249.00,3545.97,600.14,588.12,0.71,0000 0000 0000 0000 000000
2015-09-11 10:17:42,0.00,0.01,0.00,23.76,28.34,31.04,14.41,49.42,1005.44,2035.00,3446.01,3248.97,3545.73,599.85,587.77,0.76,0000 0000 0000 0000 000000
2015-09-11 10:22:44,0.01,0.01,0.00,23.77,28.34,31.02,14.43,49.38,1005.40,2035.00,3445.97,3248.87,3545.21,600.07,588.03,0.81,0000 0000 0000 0000 000000
2015-09-11 10:27:45,0.02,0.01,0.00,23.73,28.33,31.02,14.40,49.38,1005.39,2035.00,3445.70,3248.45,3545.00,600.37,588.35,0.86,0000 0000 0000 0000 000000
2015-09-11 10:32:46,0.01,0.01,0.00,23.74,28.33,30.98,14.44,49.48,1005.39,2035.00,3445.21,3248.12,3545.00,600.51,588.53,0.91,0000 0000 0000 0000 000000
2015-09-11 10:37:48,0.00,0.01,0.00,23.75,28.32,31.02,14.38,49.33,1005.40,2035.00,3445.02,3248.03,3544.93,599.94,588.04,0.96,0000 0000 0000 0000 000000
2015-09-11 10:42:49,0.00,0.01,0.00,23.75,28.32,31.04,14.45,49.54,1005.39,2035.00,3445.00,3248.01,3544.76,600.26,588.12,1.01,0000 0000 0000 0000 000000
2015-09-11 10:47:50,0.00,0.01,0.00,23.77,28.32,31.05,14.35,49.37,1005.39,2035.00,3444.97,3248.00,3544.27,600.25,588.19,1.06,0000 0000 0000 0000 000000
2015-09-11 10:52:52,0.01,0.01,0.00,23.75,28.32,31.04,14.35,49.41,1005.31,2035.00,3444.50,3248.00,3544.04,599.78,587.68,1.11,0000 0000 0000 0000 000000
2015-09-11 10:57:53,0.00,0.01,0.00,23.73,28.32,31.05,14.31,49.42,1005.25,2035.01,3444.02,3247.99,3544.00,599.85,587.80,1.16,0000 0000 0000 0000 000000
2015-09-11 11:02:54,0.00,0.01,0.00,23.70,28.32,30.99,14.40,49.49,1004.98,2035.00,3444.00,3247.95,3543.99,599.71,587.57,1.21,0000 0000 0000 0000 000000
2015-09-11 11:07:55,0.00,0.01,0.00,23.71,28.32,31.05,14.39,49.45,1004.91,2035.00,3443.99,3247.93,3543.97,600.18,587.95,1.26,0000 0000 0000 0000 000000
2015-09-11 11:12:56,0.01,0.01,0.00,23.71,28.32,31.03,14.38,49.31,1004.91,2035.01,3443.93,3247.89,3543.83,600.20,587.90,1.31,0000 0000 0000 0000 000000
2015-09-11 11:17:58,0.02,0.01,0.00,23.70,28.32,30.96,14.33,49.26,1004.90,2035.01,3443.48,3247.58,3543.25,600.00,587.83,1.36,0000 0000 0000 0000 000000
2015-09-11 11:22:59,0.01,0.01,0.00,23.70,28.32,30.98,14.36,49.41,1004.93,2035.00,3443.06,3247.25,3543.03,599.77,587.59,1.41,0000 0000 0000 0000 000000
2015-09-11 11:28:01,0.00,0.01,0.00,23.72,28.32,31.02,14.37,49.52,1004.91,2035.01,3443.01,3247.11,3543.00,600.09,587.89,1.46,0000 0000 0000 0000 000000
2015-09-11 11:33:02,0.00,0.01,0.00,23.70,28.32,31.02,14.37,49.20,1004.90,2035.02,3443.00,3247.02,3542.99,600.00,587.94,1.51,0000 0000 0000 0000 000000
2015-09-11 11:38:03,0.00,0.01,0.00,23.69,28.32,30.96,14.34,49.21,1004.90,2035.02,3442.99,3247.01,3542.98,600.02,587.84,1.56,0000 0000 0000 0000 000000
2015-09-11 11:43:04,0.00,0.01,0.00,23.67,28.31,30.98,14.32,49.26,1004.89,2035.01,3442.84,3247.01,3542.95,599.90,587.72,1.61,0000 0000 0000 0000 000000
2015-09-11 11:48:05,0.02,0.01,0.00,23.67,28.31,30.96,14.37,49.42,1004.88,2035.03,3442.23,3247.00,3542.58,600.00,587.80,1.66,0000 0000 0000 0000 000000
2015-09-11 11:53:07,0.01,0.02,0.00,23.69,28.31,30.99,14.28,49.46,1004.81,2035.02,3442.01,3246.99,3542.11,599.81,587.51,1.71,0000 0000 0000 0000 000000
2015-09-11 11:58:08,-0.00,0.02,0.00,23.66,28.30,30.96,14.31,49.50,1004.77,2035.03,3442.00,3246.97,3542.01,599.98,587.85,1.76,0000 0000 0000 0000 000000
2015-09-11 12:03:09,0.00,0.02,0.00,23.67,28.30,30.98,14.26,49.30,1004.50,2035.04,3441.98,3246.91,3542.00,600.08,587.57,1.81,0000 0000 0000 0000 000000
2015-09-11 12:08:10,0.01,0.02,0.00,23.66,28.30,30.97,14.35,49.24,1004.44,2035.05,3441.87,3246.70,3541.99,600.00,587.58,1.86,0000 0000 0000 0000 000000
2015-09-11 12:13:12,0.02,0.02,0.00,23.68,28.31,31.00,14.34,49.40,1004.42,2035.05,3441.29,3246.26,3541.76,599.97,587.43,1.91,0000 0000 0000 0000 000000
2015-09-11 12:18:13,0.01,0.02,0.00,23.70,28.31,31.02,14.38,49.43,1004.41,2035.03,3441.02,3246.04,3541.36,600.05,587.35,1.96,0000 0000 0000 0000 000000
2015-09-11 12:23:14,0.00,0.02,0.00,23.70,28.32,31.02,14.34,49.35,1004.40,2035.04,3441.00,3246.02,3541.16,599.86,587.43,2.01,0000 0000 0000 0000 000000
2015-09-11 12:28:15,0.01,0.02,0.00,23.70,28.32,31.03,14.40,49.48,1004.41,2035.08,3441.00,3246.01,3541.02,600.21,587.68,2.06,0000 0000 0000 0000 000000
2015-09-11 12:33:16,-0.00,0.02,0.00,23.68,28.32,31.04,14.29,49.27,1004.41,2035.11,3440.84,3246.00,3541.00,600.07,587.53,2.11,0000 0000 0000 0000 000000
2015-09-11 12:38:18,0.01,0.02,0.00,23.62,28.32,30.96,14.38,49.42,1004.38,2035.12,3440.18,3245.98,3540.92,599.85,587.50,2.16,0000 0000 0000 0000 000000
2015-09-11 12:43:19,0.01,0.02,0.00,23.64,28.32,30.97,14.41,49.41,1004.21,2035.05,3440.01,3245.70,3540.22,600.41,587.89,2.21,0000 0000 0000 0000 000000
2015-09-11 12:48:21,0.01,0.02,0.00,23.65,28.32,30.95,14.33,49.37,1004.21,2035.03,3440.00,3245.36,3540.02,599.86,587.24,2.26,0000 0000 0000 0000 000000
2015-09-11 12:53:22,0.01,0.02,0.00,23.66,28.32,30.99,14.35,49.12,1004.04,2035.04,3439.94,3245.09,3540.00,599.88,587.29,2.31,0000 0000 0000 0000 000000
2015-09-11 12:58:23,0.01,0.02,0.00,23.67,28.32,31.01,14.32,49.22,1003.94,2035.05,3439.62,3245.05,3539.98,599.86,587.20,2.36,0000 0000 0000 0000 000000